Regional Weather Roundup
Issued by NWS

Home | Current Version | Previous Version | Text Only | Print | Product List | Glossary Off
Versions: 1 2 3 4 5 6 7 8 9 10 11 12 13 14 15 16 17 18 19 20 21 22 23 24 25 26 27 28 29 30 31 32 33 34 35 36 37 38 39 40 41 42 43 44 45 46 47 48 49 50

762
ASUS43 KMKX 031900
RWRWI

WISCONSIN REGIONAL WEATHER ROUNDUP
NATIONAL WEATHER SERVICE MILWAUKEE/SULLIVAN WI
100 PM CST SAT DEC 03 2016

NOTE: "FAIR" INDICATES FEW OR NO CLOUDS BELOW 12,000 FEET WITH NO
SIGNIFICANT WEATHER AND/OR OBSTRUCTIONS TO VISIBILITY.

WIZ001-002-006>008-014>016-023>028-032000-
NORTHWEST WISCONSIN

CITY           SKY/WX    TMP DP  RH WIND       PRES   REMARKS
SUPERIOR ARPT  CLOUDY    31  25  80 CALM      30.26S
ASHLAND        CLOUDY    32  25  75 SW5       30.26S WCI  27
HAYWARD        CLOUDY    30  20  66 CALM      30.24
SIREN          CLOUDY    30  24  78 W6        30.26S WCI  24
CUMBERLAND     CLOUDY    28  23  80 CALM      30.25S
RICE LAKE      CLOUDY    30  24  77 SW5       30.28R WCI  25
CHETEK         CLOUDY    30  26  86 SW3       30.27R
LADYSMITH      CLOUDY    30  26  84 CALM      30.27R
EAU CLAIRE     NOT AVBL
MENOMONIE      CLOUDY    31  21  66 CALM      30.27F
NEW RICHMOND   CLOUDY    31  23  73 CALM      30.25F
OSCEOLA        CLOUDY    31  22  70 SW6       30.29F WCI  25
$$

WIZ003>005-009-010-017-018-032000-
NORTH CENTRAL WISCONSIN

CITY           SKY/WX    TMP DP  RH WIND       PRES   REMARKS
MANITOWISH WTR CLOUDY    28  23  81 CALM      30.20F
ARBOR VITAE    CLOUDY    31  26  80 SE3       30.20F
WOODRUFF       CLOUDY    31  26  80 SE3       30.20F
RHINELANDER    CLOUDY    29  21  72 S3        30.22S
EAGLE RIVER    CLOUDY    29  20  70 SW3       30.20F
LAND O LAKES   CLOUDY    29  23  78 SW3       30.21S
PHILLIPS       CLOUDY    28  24  87 SW3       30.22S
TOMAHAWK       CLOUDY    28  20  71 CALM      30.23R
MEDFORD        CLOUDY    28  21  75 NW7       30.23S WCI  21
MERRILL        CLOUDY    28  22  78 NW5       30.26R WCI  23
$$

WIZ029-030-035-036-043>047-032000-
CENTRAL WISCONSIN

CITY           SKY/WX    TMP DP  RH WIND       PRES   REMARKS
WAUSAU         CLOUDY    29  21  72 W6        30.25R WCI  23
MOSINEE        CLOUDY    28  25  86 W3        30.26R
MARSHFIELD     CLOUDY    29  22  75 W6        30.25R WCI  23
STEVENS POINT  CLOUDY    28  22  78 W5        30.26S WCI  23
WAUPACA        CLOUDY    33  23  64 CALM      30.29R
WAUTOMA        CLOUDY    31  23  72 SW7       30.30R WCI  24
WISC RAPIDS    CLOUDY    31  23  72 SW5       30.29R WCI  26
CAMP DOUGLAS   NOT AVBL
$$

WIZ011>013-019>022-031-037>040-048>050-032000-
NORTHEAST WISCONSIN

CITY           SKY/WX    TMP DP  RH WIND       PRES   REMARKS
ANTIGO         CLOUDY    28  22  78 W6        30.23R WCI  21
SHAWANO        CLOUDY    33  24  68 SW7       30.27R WCI  27
OCONTO         CLOUDY    33  25  73 W6        30.26R WCI  27
STURGEON BAY   CLOUDY    34  27  75 W9        30.26R WCI  27
GREEN BAY      CLOUDY    33  26  75 NW8       30.28R WCI  26
MANITOWOC      NOT AVBL
APPLETON       CLOUDY    30  21  69 VRB5      30.26R WCI  25
CLINTONVILLE   CLOUDY    32  23  69 NW7       30.27S WCI  26
OSHKOSH        CLOUDY    32  22  66 W3        30.28R
$$

WIZ032>034-041-042-053>061-032000-
SOUTHWEST WISCONSIN

CITY           SKY/WX    TMP DP  RH WIND       PRES   REMARKS
LA CROSSE      CLOUDY    34  23  64 S6        30.30S WCI  29
SPARTA         CLOUDY    33  22  65 W7        30.30S WCI  26
VIROQUA        CLOUDY    30  26  82 SW7       30.28S WCI  24
BOSCOBEL       CLOUDY    34  24  67 SW5       30.33S WCI  30
PRAIRIE DU CHI CLOUDY    34  24  68 SW3       30.32S
PLATTEVILLE    CLOUDY    33  27  79 SW8       30.32F WCI  26
$$

WIZ056-057-062-063-064-067-068-032000-
SOUTH CENTRAL WISCONSIN

CITY           SKY/WX    TMP DP  RH WIND       PRES   REMARKS
REEDSBURG      CLOUDY    32  21  64 W6        30.30R WCI  26
BARABOO/DELLS  CLOUDY    32  20  62 W3        30.29S
LONE ROCK      NOT AVBL
MINERAL POINT  CLOUDY    34  27  75 SW8       30.30S WCI  27
MADISON        FLURRIES  32  21  64 CALM      30.31R
MIDDLETON      CLOUDY    33  24  69 SW3       30.30F
WATERTOWN      CLOUDY    31  23  73 W6        30.32R WCI  25
MONROE         CLOUDY    32  27  80 S5        30.30F WCI  27
JANESVILLE     CLOUDY    34  25  69 W3        30.32S
$$

WIZ051-052-058>065-066-070>072-032000-
SOUTHEAST WISCONSIN

CITY           SKY/WX    TMP DP  RH WIND       PRES   REMARKS
MILWAUKEE      CLOUDY    34  22  61 SW9       30.32S WCI  27
WAUKESHA       CLOUDY    28  21  74 W7        30.33R WCI  21
MILWAUKEE/TIMM CLOUDY    32  21  64 SW7       30.33R WCI  26
RACINE         CLOUDY    32  22  66 SW10      30.35R WCI  24
BURLINGTON     CLOUDY    31  23  71 W5        30.32S WCI  27
KENOSHA        CLOUDY    32  23  69 SW8       30.34R WCI  25
FOND DU LAC    CLOUDY    32  20  61 SW6       30.30R WCI  26
SHEBOYGAN      CLOUDY    32  22  66 W6        30.30R WCI  26
WEST BEND      CLOUDY    32  23  69 W6        30.30R WCI  26
JUNEAU         CLOUDY    30  22  70 SW8       30.32R WCI  23
$$

LSZ147-162-032000-
LAKE SUPERIOR

STATION/POSITION TIME  TEMP    WIND        PRES    WAVE
                       AIR SEA DIR/SP/G            HT/PER
                 (UTC) (F)     (DEG/KT/KT) (MB)    (FT/S)
DEVILS ISLAND    1800   32     270/  7/  8 1025.2F
PORT WING        1830   31     210/  4/  7 1024.7S
SAXON HARBOR     1830   33     210/  5/  7 1024.0F
$$

LMZ867-665-643>646-032000-
LAKE MICHIGAN

STATION/POSITION TIME  TEMP    WIND        PRES    WAVE
                       AIR SEA DIR/SP/G            HT/PER
                 (UTC) (F)     (DEG/KT/KT) (MB)    (FT/S)
CHAMBERS ISLAND  1840   36     240/  3/  6 1023.7F
NORTHPORT PIER   1840   37     300/  8/ 11 1023.4F
SISTER BAY       1753   36     330/ 10/ 12   N/A
ALGOMA LAKESHORE 1806          270/  5/  9   N/A
KEWAUNEE LAKESHO 1830   33     300/  6/  8 1024.1F
SHEBOYGAN LAKESH 1800   32     310/  5/  7 1025.9F
PORT WASHINGTON  1840   33     280/  6/  8 1027.4R
MILWAUKEE LAKESH 1830   33     280/  6/  7   N/A
S MID LAKE BUOY  1750   34 49  260/  4/  8 1026.9R   1/ 5
KENOSHA   LAKESH 1800   32     300/  5/  8 1026.8
$$

TC  - TEMPERATURE IN CELSIUS
VSB - VISIBILITY IN STATUTE MILES
WCI - WIND CHILL INDEX
HX  - HEAT INDEX





USA.gov is the U.S. government's official web portal to all federal, state and local government web resources and services.